Location: Unspecified
(0.0000°N, 0.0000°E)
Time: 08:28:43
(UTC+00:00)

Envisat - Pass Details

Date: 15 September 2021
Orbit: 764 x 766 km, 98.2° (Epoch: 17 September)

Event Time Altitude Azimuth Distance (km) Brightness Sun altitude
Rises 03:43:20 0° 47° (NE) 3,216 6.9 -32.9°
Reaches altitude 10° 03:46:43 10° 71° (ENE) 2,294 6.3 -32.1°
Maximum altitude 03:49:20 14° 103° (ESE) 2,015 5.9 -31.4°
Drops below altitude 10° 03:51:58 10° 134° (SE) 2,300 5.9 -30.8°
Sets 03:55:21 0° 158° (SSE) 3,229 6.5 -29.9°
